Regional Weather Roundup
Issued by NWS Nashville, TN

Home | Current Version | Previous Version | Text Only | Print | Product List | Glossary On
Versions: 1 2 3 4 5 6 7 8 9 10 11 12 13 14 15 16 17 18 19 20 21 22 23 24 25 26 27 28
000
ASUS44 KOHX 260210
RWROHX
MIDDLE TENNESSEE HOURLY WEATHER ROUNDUP
NATIONAL WEATHER SERVICE NASHVILLE TN
900 PM CDT WED APR 25 2018

NOTE: "FAIR" INDICATES FEW OR NO CLOUDS BELOW 12,000 FEET WITH
NO SIGNIFICANT WEATHER AND/OR OBSTRUCTIONS TO VISIBILITY.

* THESE REPORTS ARE NOT UNDER NWS QUALITY CONTROL AND MAY NOT
  REPORT WEATHER SUCH AS PRECIPITATION AND FOG.


TNZ005>011-023>034-057-059-062>066-078-080-260300
...NORTHERN MIDDLE TENNESSEE...

CITY           SKY/WX    TMP DP  RH WIND       PRES   REMARKS
CLARKSVILLE      N/A     61  51  70 E3        29.93S
CROSSVILLE       N/A     52  46  80 CALM      29.97R
GALLATIN       MOCLDY    61  54  77 CALM      29.97S
LEBANON        PTCLDY    61  52  72 CALM      29.93F
LIVINGSTON     CLEAR     55  50  82 W3        29.95R
NASHVILLE      CLOUDY    65  50  58 CALM      29.94F
PORTLAND       MOCLDY    61  52  72 CALM      29.94S
SMYRNA           N/A     61  54  77 CALM      29.95F
SPARTA         PTCLDY    55  54  94 CALM      29.95S
SPRINGFIELD    CLOUDY    59  54  82 CALM      29.93S
WEST NASHVILLE PTCLDY    63  54  72 CALM      29.92S
$$
TNZ056-058-060-061-075>077-079-093>097-260300
...SOUTHERN MIDDLE TENNESSEE...

CITY           SKY/WX    TMP DP  RH WIND       PRES   REMARKS
COLUMBIA       MOCLDY    59  59 100 SW6       29.94R
FAYETTEVILLE   CLOUDY    63  52  67 NE5       29.94S
LEWISBURG      CLOUDY    59  55  88 CALM      29.94S
MCMINNVILLE    CLOUDY    59  52  77 CALM      29.95S
MURFREESBORO   CLOUDY    61  54  77 CALM      29.93F
PULASKI        CLOUDY    61  54  77 NW8       29.95R
SHELBYVILLE    CLOUDY    59  55  88 CALM      29.94F
TULLAHOMA      CLOUDY    59  52  77 CALM      29.94S
WINCHESTER     CLOUDY    57  52  82 CALM      29.94F
$$


...KEY TO REMARKS...
VSB - VISIBILITY IN MILES
WCI - WIND CHILL INDEX
HX  - HEAT INDEX





USA.gov is the U.S. government's official web portal to all federal, state and local government web resources and services.